Date String (YYYY-MM-DD hh:mm:ss) UTC,Instrument flags,absolute air pressure of the measurement (hPa),sample flow rate (lpm),inlet stack bypass flow (lpm),air temperature of the measurement (°C),ambient temperature measured by the external sensor (°C),aerosol sample conditioner tube jacket temperature (°C),OPC LED temperature (°C),internal box temperature (°C),relative humidity of the measurement (%),span deviation,mass concentration of particles derived from Lorenz-Mie calculation of OPC scattering (μg/m³),mass concentration of particles derived from Lorenz-Mie calculation of OPC scattering (μg/m³),mass concentration of particles derived from Lorenz-Mie calculation of OPC scattering (μg/m³)
DateTimeUTC,F1_M11,P_M11,Q1_M11,Q2_M11,T1_M11,T2_M11,T3_M11,T4_M11,T5_M11,U1_M11,ZSPAN_M11,X0_M11,X2_M11,X1_M11
2024-04-11 18:00:00,SystemResetWarning,0832.0,5.00,000.00,025.0,024.4,000.0,033.3,026.8,015.9,0000.0,0012.67,0005.13,0004.23
2024-04-11 18:01:00,SystemResetWarning,0832.0,5.01,000.00,025.0,024.4,000.0,033.3,026.8,015.8,0000.0,0012.35,0005.13,0004.22
2024-04-11 18:02:00,SystemResetWarning,0831.9,5.01,000.00,025.0,024.4,000.0,033.3,026.8,015.9,0000.0,0012.35,0005.11,0004.21
2024-04-11 18:03:00,SystemResetWarning,0831.9,4.99,000.00,025.0,024.4,000.0,033.3,026.8,016.0,0000.0,0013.20,0005.03,0004.20
2024-04-11 18:04:00,SystemResetWarning,0831.9,4.99,000.00,025.0,024.5,000.0,033.4,026.9,016.2,0000.0,0014.02,0005.05,0004.19
2024-04-11 18:05:00,SystemResetWarning,0831.9,5.00,000.00,025.0,024.5,000.0,033.4,026.9,016.0,0000.0,0013.96,0005.01,0004.18
2024-04-11 18:06:00,SystemResetWarning,0831.8,5.01,000.00,025.1,024.5,000.0,033.4,026.9,016.1,0000.0,0014.88,0005.03,0004.17
2024-04-11 18:07:00,SystemResetWarning,0831.8,5.01,000.00,025.1,024.6,000.0,033.4,026.9,016.0,0000.0,0015.99,0005.01,0004.16
2024-04-11 18:08:00,SystemResetWarning,0831.8,5.01,000.00,025.1,024.6,000.0,033.4,026.9,015.7,0000.0,0016.09,0004.98,0004.14
2024-04-11 18:09:00,SystemResetWarning,0832.0,5.00,000.00,025.1,024.6,000.0,033.4,026.9,015.2,0000.0,0014.81,0004.94,0004.12
2024-04-11 18:10:00,SystemResetWarning,0832.1,5.00,000.00,025.1,024.6,000.0,033.4,027.0,015.2,0000.0,0013.62,0004.92,0004.09
2024-04-11 18:11:00,SystemResetWarning,0831.9,5.00,000.00,025.1,024.6,000.0,033.4,027.0,015.0,0000.0,0013.81,0004.97,0004.08
2024-04-11 18:12:00,SystemResetWarning,0832.2,5.00,000.00,025.1,024.5,000.0,033.5,027.0,015.1,0000.0,0014.03,0004.98,0004.06
2024-04-11 18:13:00,SystemResetWarning,0832.0,4.99,000.00,025.1,024.5,000.0,033.5,027.0,015.4,0000.0,0014.00,0004.96,0004.05
2024-04-11 18:14:00,SystemResetWarning,0832.1,4.99,000.00,025.1,024.6,000.0,033.5,026.9,015.3,0000.0,0012.95,0005.01,0004.04
2024-04-11 18:15:00,SystemResetWarning,0831.7,5.00,000.00,025.1,024.6,000.0,033.5,027.0,015.5,0000.0,0012.19,0005.01,0004.03
2024-04-11 18:16:00,SystemResetWarning,0831.8,5.00,000.00,025.2,024.6,000.0,033.5,027.0,015.4,0000.0,0012.20,0005.03,0004.04
2024-04-11 18:17:00,SystemResetWarning,0831.7,5.00,000.00,025.2,024.6,000.0,033.5,027.0,015.4,0000.0,0011.83,0004.97,0004.06
2024-04-11 18:18:00,SystemResetWarning,0831.7,5.00,000.00,025.2,024.6,000.0,033.5,027.0,015.4,0000.0,0011.56,0005.04,0004.09
2024-04-11 18:19:00,SystemResetWarning,0831.7,5.00,000.00,025.2,024.7,000.0,033.5,027.0,015.3,0000.0,0012.02,0005.12,0004.12
2024-04-11 18:20:00,SystemResetWarning,0831.7,5.00,000.00,025.2,024.7,000.0,033.5,027.0,015.2,0000.0,0012.12,0005.18,0004.17
2024-04-11 18:21:00,SystemResetWarning,0831.7,5.01,000.00,025.2,024.7,000.0,033.5,027.1,015.3,0000.0,0012.60,0005.21,0004.21
2024-04-11 18:22:00,SystemResetWarning,0831.7,5.00,000.00,025.2,024.7,000.0,033.6,027.1,015.1,0000.0,0012.59,0005.21,0004.25
2024-04-11 18:23:00,SystemResetWarning,0831.7,5.00,000.00,025.3,024.7,000.0,033.6,027.1,015.1,0000.0,0012.67,0005.23,0004.28
2024-04-11 18:24:00,SystemResetWarning,0831.7,4.99,000.00,025.3,024.7,000.0,033.6,027.1,014.9,0000.0,0012.84,0005.34,0004.33
2024-04-11 18:25:00,SystemResetWarning,0831.7,4.99,000.00,025.3,024.7,000.0,033.6,027.1,014.8,0000.0,0013.19,0005.34,0004.36
2024-04-11 18:26:00,SystemResetWarning,0831.6,5.00,000.00,025.3,024.7,000.0,033.6,027.1,015.3,0000.0,0014.01,0005.39,0004.40
2024-04-11 18:27:00,SystemResetWarning,0831.6,5.00,000.00,025.3,024.7,000.0,033.6,027.1,015.4,0000.0,0014.64,0005.57,0004.54
2024-04-11 18:28:00,SystemResetWarning,0831.6,5.01,000.00,025.3,024.7,000.0,033.6,027.1,014.8,0000.0,0014.44,0005.82,0004.74
2024-04-11 18:29:00,SystemResetWarning,0831.6,5.01,000.00,025.3,024.7,000.0,033.6,027.1,014.5,0000.0,0013.87,0005.91,0004.80
2024-04-11 18:30:00,SystemResetWarning,0831.6,5.00,000.00,025.3,024.7,000.0,033.6,027.1,014.4,0000.0,0014.23,0005.96,0004.80
2024-04-11 18:31:00,SystemResetWarning,0831.6,5.00,000.00,025.3,024.7,000.0,033.7,027.1,014.5,0000.0,0014.66,0006.00,0004.80
2024-04-11 18:32:00,SystemResetWarning,0831.6,4.99,000.00,025.3,024.7,000.0,033.7,027.1,014.7,0000.0,0014.26,0006.05,0004.81
2024-04-11 18:33:00,SystemResetWarning,0831.5,5.00,000.00,025.3,024.7,000.0,033.7,027.1,014.9,0000.0,0014.18,0006.09,0004.83
2024-04-11 18:34:00,SystemResetWarning,0831.5,5.00,000.00,025.3,024.8,000.0,033.7,027.2,015.0,0000.0,0013.96,0006.09,0004.84
2024-04-11 18:35:00,SystemResetWarning,0831.5,5.00,000.00,025.4,024.8,000.0,033.7,027.2,015.1,0000.0,0013.97,0006.07,0004.86
2024-04-11 18:36:00,SystemResetWarning,0831.5,4.99,000.00,025.4,024.8,000.0,033.7,027.2,014.9,0000.0,0013.89,0006.19,0004.99
2024-04-11 18:37:00,SystemResetWarning,0831.4,5.00,000.00,025.4,024.8,000.0,033.7,027.2,015.2,0000.0,0014.78,0006.47,0005.24
2024-04-11 18:38:00,SystemResetWarning,0831.5,5.00,000.00,025.4,024.9,000.0,033.7,027.2,014.9,0000.0,0015.68,0006.82,0005.57
2024-04-11 18:39:00,SystemResetWarning,0831.4,5.01,000.00,025.4,024.9,000.0,033.7,027.3,014.7,0000.0,0016.23,0007.16,0005.89
2024-04-11 18:40:00,SystemResetWarning,0831.5,5.00,000.00,025.4,024.9,000.0,033.8,027.3,014.7,0000.0,0017.46,0007.62,0006.35
2024-04-11 18:41:00,SystemResetWarning,0831.5,5.00,000.00,025.5,024.9,000.0,033.8,027.3,014.9,0000.0,0018.17,0008.11,0006.82
2024-04-11 18:42:00,SystemResetWarning,0831.4,4.99,000.00,025.5,024.9,000.0,033.8,027.3,014.4,0000.0,0017.59,0008.20,0006.95
2024-04-11 18:43:00,SystemResetWarning,0831.4,5.00,000.00,025.5,024.9,000.0,033.8,027.3,014.4,0003.2,0017.71,0008.24,0007.00
2024-04-11 18:44:00,SystemResetWarning,0831.4,5.00,000.00,025.5,024.9,000.0,033.8,027.3,014.2,0004.6,0018.22,0008.29,0007.08
2024-04-11 18:45:00,SystemResetWarning,0831.4,5.00,000.00,025.5,024.8,000.0,033.8,027.2,014.2,0004.7,0019.04,0008.48,0007.23
2024-04-11 18:46:00,SystemResetWarning,0831.4,5.00,000.00,025.5,024.8,000.0,033.8,027.2,014.3,0004.7,0020.22,0008.63,0007.36
2024-04-11 18:47:00,SystemResetWarning,0831.4,5.00,000.00,025.5,024.8,000.0,033.8,027.2,014.1,0004.8,0020.34,0008.69,0007.41
2024-04-11 18:48:00,SystemResetWarning,0831.4,5.00,000.00,025.5,024.8,000.0,033.8,027.3,014.3,0004.9,0019.28,0008.58,0007.30
2024-04-11 18:49:00,SystemResetWarning,0831.4,5.00,000.00,025.5,024.8,000.0,033.8,027.3,014.3,0005.0,0017.45,0008.24,0006.98
2024-04-11 18:50:00,SystemResetWarning,0831.4,4.99,000.00,025.5,024.8,000.0,033.8,027.3,014.3,0004.9,0016.59,0007.75,0006.51
2024-04-11 18:51:00,SystemResetWarning,0831.4,5.00,000.00,025.5,024.8,000.0,033.9,027.3,014.0,0005.0,0015.50,0007.24,0006.01
2024-04-11 18:52:00,SystemResetWarning,0831.4,5.00,000.00,025.5,024.9,000.0,033.9,027.3,014.6,0001.5,0014.98,0006.81,0005.56
2024-04-11 18:53:00,SystemResetWarning,0831.4,5.00,000.00,025.5,024.9,000.0,033.9,027.3,014.6,0000.0,0015.38,0006.70,0005.45
2024-04-11 18:54:00,SystemResetWarning,0831.4,5.00,000.00,025.5,024.9,000.0,033.9,027.3,014.6,0000.0,0015.76,0006.74,0005.45
2024-04-11 18:55:00,SystemResetWarning,0831.4,5.00,000.00,025.5,024.9,000.0,033.9,027.4,014.2,0000.0,0015.68,0006.70,0005.44
2024-04-11 18:56:00,SystemResetWarning,0831.3,5.00,000.00,025.5,024.9,000.0,033.9,027.3,013.9,0001.8,0015.75,0006.64,0005.38
2024-04-11 18:57:00,SystemResetWarning,0831.3,5.00,000.00,025.5,024.9,000.0,033.9,027.3,013.9,0005.4,0015.88,0006.56,0005.27
2024-04-11 18:58:00,SystemResetWarning,0831.3,5.00,000.00,025.6,024.9,000.0,033.9,027.3,014.4,0005.5,0015.95,0006.46,0005.16
2024-04-11 18:59:00,SystemResetWarning,0831.3,5.00,000.00,025.6,024.9,000.0,033.9,027.4,015.0,0002.6,0015.91,0006.34,0005.05
